Weather in Sibirsky

Russia / Khanty-Mansi Autonomous Okrug — Yugra     60°34′20″N   69°47′04″E
temp.,
°C
wind,
m/s
gust,
m/s
humid.,
%
clouds,
%
prec.,
mm/h
press.,
hPa
HPBL,
m
10 may, mon
mon1023:00+10e396637 0.0 1026201
02:00+7ese37730 0.0 1027136
05:00+7ese36740 0.0 1029134
08:00+12e34510 0.0 1029465
11:00+16e34330 0.0 10291181
14:00+18e34280 0.0 10281505
17:00+19e33280 0.0 10281555
20:00+14e34460 0.0 102856
11 may, tue
tue1123:00+10ese34580 0.0 102848
02:00+8se22640 0.0 102827
05:00+8sse23690 0.0 102848
08:00+14ssw23502 0.0 1027353
11:00+19sw343356 0.0 10261329
14:00+21wsw4524100 0.0 10241854
17:00+21wsw4629100 0.0 10231888
20:00+17nw4856100 0.0 1023287
12 may, wed
wed1223:00+13nw698185 0.3 1023621
02:00+10nnw5876100 0.0 1024925
05:00+8nnw477863 0.0 1025652
08:00+10nnw465799 0.0 1026676
11:00+12nnw344136 0.0 1025819
14:00+14nnw344272 0.0 10251407
17:00+14n1249100 0.0 1024792
20:00+13se2158100 0.0 102424
13 may, thu
thu1323:00+10ssw116845 0.0 102410
02:00+9wsw2271100 0.0 102310
05:00+11sw2369100 0.0 102357
08:00+12sw4880100 0.0 1021328
11:00+18nw576363 0.3 10201377
14:00+19nnw7104892 0.3 10202108
17:00+16nnw71147100 0.3 10221979
20:00+12n596092 0.0 1024875
14 may, fri
fri1423:00+8nne367415 0.0 1026123
02:00+6sse227795 0.0 102623
05:00+7ssw357499 0.0 1026163
08:00+11ssw456047 0.0 1024467
11:00+12s4869100 0.9 1021543
14:00+15se3468100 0.2 1017179
17:00+18wnw127122 2.5 1017301
20:00+15ssw2291100 1.8 101617